Location: ?????????
(41.1143°N, 22.7905°E)
Time: 07:50:45
(UTC+00:00)

COSMO-SKYMED 1 - Pass Details

Date: 19 March 2026
Orbit: 576 x 578 km, 97.9° (Epoch: 18 April)

Event Time Altitude Azimuth Distance (km) Brightness Sun altitude
Rises 17:10:32 0° 9° (N) 2,799 5.9 -6.6°
Reaches altitude 10° 17:12:42 10° 7° (N) 1,896 5.1 -7.0°
Maximum altitude 17:16:47 69° 285° (WNW) 621 2.8 -7.8°
Drops below altitude 10° 17:20:50 10° 202° (SSW) 1,880 5.2 -8.5°
Sets 17:22:58 0° 200° (SSW) 2,773 6.1 -8.9°
